LVCAM SAWH-SAWC

Flight info

Callsign LVCAM
Flight time 1h 2m
Altitude 36000
Route GRA2B GRA UW42 GAL UW52 DEVIS DEVIS2Q
Aircraft A320/M-SDE3FGHIRWY/LB1

Departure

Time 2026-04-23 19:24
Airport Ushuaia - Malvinas Argentinas International Airport (SAWH)

Arrival

Time 2026-04-23 20:26
Airport El Calafate - Commander Armando Tola International Airport (SAWC)
Time Latitude Longitude Altitude Speed Heading
2026-04-23 17:56 -54.84024 -68.31177 87 ft 0 kts 349°
2026-04-23 19:10 -54.84032 -68.31174 83 ft 4 kts 346°
2026-04-23 19:10 -54.84058 -68.31162 84 ft 4 kts 351°
2026-04-23 19:10 -54.84079 -68.31160 84 ft 4 kts 14°
2026-04-23 19:11 -54.84094 -68.31182 87 ft 4 kts 83°
2026-04-23 19:11 -54.84096 -68.31220 84 ft 2 kts 84°
2026-04-23 19:11 -54.84096 -68.31222 86 ft 0 kts 85°
2026-04-23 19:18 -54.84094 -68.31187 83 ft 7 kts 85°
2026-04-23 19:18 -54.84090 -68.31062 83 ft 10 kts 90°
2026-04-23 19:19 -54.84189 -68.30971 86 ft 12 kts 175°
2026-04-23 19:19 -54.84284 -68.30962 87 ft 15 kts 177°
2026-04-23 19:20 -54.84371 -68.30646 85 ft 22 kts 86°
2026-04-23 19:20 -54.84361 -68.30364 82 ft 25 kts 89°
2026-04-23 19:20 -54.84351 -68.30047 83 ft 27 kts 84°
2026-04-23 19:20 -54.84335 -68.29714 85 ft 29 kts 87°
2026-04-23 19:21 -54.84322 -68.29363 89 ft 30 kts 85°
2026-04-23 19:21 -54.84293 -68.28582 80 ft 34 kts 86°
2026-04-23 19:21 -54.84274 -68.28176 81 ft 34 kts 84°
2026-04-23 19:22 -54.84263 -68.27842 89 ft 22 kts 86°
2026-04-23 19:22 -54.84252 -68.27597 89 ft 18 kts 80°
2026-04-23 19:22 -54.84213 -68.27262 88 ft 9 kts 119°
2026-04-23 19:23 -54.84240 -68.27298 86 ft 5 kts 259°
2026-04-23 19:23 -54.84241 -68.27305 83 ft 0 kts 260°
2026-04-23 19:23 -54.84259 -68.27634 87 ft 63 kts 265°
2026-04-23 19:24 -54.84385 -68.30561 222 ft 161 kts 262°
2026-04-23 19:24 -54.84513 -68.32499 872 ft 162 kts 264°
2026-04-23 19:24 -54.85184 -68.36115 2136 ft 170 kts 225°
2026-04-23 19:25 -54.87530 -68.37085 3263 ft 198 kts 167°
2026-04-23 19:25 -54.89106 -68.33133 4193 ft 220 kts 82°
2026-04-23 19:26 -54.88360 -68.28010 5287 ft 222 kts 69°
2026-04-23 19:26 -54.87935 -68.25420 5835 ft 225 kts 70°
2026-04-23 19:27 -54.87089 -68.20145 6922 ft 230 kts 70°
2026-04-23 19:27 -54.86307 -68.11773 8112 ft 261 kts 104°
2026-04-23 19:28 -54.86847 -68.05063 8616 ft 305 kts 74°
2026-04-23 19:28 -54.84308 -67.99427 9552 ft 312 kts 18°
2026-04-23 19:29 -54.82174 -67.98638 9762 ft 323 kts 357°
2026-04-23 19:29 -54.77455 -67.98299 10501 ft 352 kts 357°
2026-04-23 19:30 -54.72540 -67.97943 11846 ft 357 kts 358°
2026-04-23 19:30 -54.70056 -67.97740 12531 ft 360 kts 358°
2026-04-23 19:30 -54.65048 -67.97310 13857 ft 364 kts 358°
2026-04-23 19:31 -54.62506 -67.97095 14534 ft 368 kts 358°
2026-04-23 19:31 -54.59950 -67.96888 15163 ft 370 kts 357°
2026-04-23 19:31 -54.57373 -67.96678 15745 ft 373 kts 357°
2026-04-23 19:31 -54.54778 -67.96469 16293 ft 375 kts 357°
2026-04-23 19:32 -54.52167 -67.96257 16816 ft 377 kts 357°
2026-04-23 19:32 -54.49537 -67.95882 17333 ft 384 kts
2026-04-23 19:32 -54.46894 -67.95086 17810 ft 388 kts
2026-04-23 19:32 -54.44233 -67.94280 18303 ft 391 kts
2026-04-23 19:33 -54.41556 -67.93469 18795 ft 393 kts
2026-04-23 19:33 -54.38865 -67.92658 19304 ft 394 kts
2026-04-23 19:33 -54.33452 -67.91042 20297 ft 397 kts
2026-04-23 19:34 -54.30731 -67.90235 20748 ft 399 kts
2026-04-23 19:34 -54.27999 -67.89427 21183 ft 400 kts
2026-04-23 19:34 -54.22526 -67.87802 22084 ft 402 kts
2026-04-23 19:35 -54.19767 -67.86976 22512 ft 404 kts
2026-04-23 19:35 -54.17960 -67.86437 22780 ft 405 kts
2026-04-23 19:35 -54.16264 -67.85932 23014 ft 406 kts
2026-04-23 19:35 -54.13483 -67.85107 23422 ft 407 kts
2026-04-23 19:36 -54.10698 -67.84282 23820 ft 408 kts
2026-04-23 19:36 -54.07903 -67.83458 24199 ft 409 kts
2026-04-23 19:36 -54.05099 -67.82639 24555 ft 411 kts
2026-04-23 19:36 -54.02288 -67.81823 24896 ft 412 kts
2026-04-23 19:37 -53.99460 -67.81003 25236 ft 414 kts
2026-04-23 19:37 -53.96617 -67.80173 25559 ft 416 kts
2026-04-23 19:37 -53.93781 -67.79342 25871 ft 417 kts
2026-04-23 19:37 -53.90916 -67.78502 26163 ft 420 kts
2026-04-23 19:38 -53.88040 -67.77662 26459 ft 421 kts
2026-04-23 19:38 -53.85153 -67.76822 26739 ft 423 kts
2026-04-23 19:38 -53.82251 -67.76007 27031 ft 422 kts
2026-04-23 19:38 -53.79356 -67.75768 27297 ft 418 kts 353°
2026-04-23 19:39 -53.76498 -67.76314 27645 ft 412 kts 345°
2026-04-23 19:39 -53.73763 -67.77587 28028 ft 406 kts 336°
2026-04-23 19:39 -53.71198 -67.79465 28395 ft 403 kts 332°
2026-04-23 19:39 -53.68659 -67.81439 28767 ft 402 kts 333°
2026-04-23 19:40 -53.66121 -67.83394 29130 ft 401 kts 333°
2026-04-23 19:40 -53.63587 -67.85330 29487 ft 400 kts 333°
2026-04-23 19:40 -53.61058 -67.87260 29823 ft 400 kts 333°
2026-04-23 19:40 -53.58538 -67.89189 30183 ft 399 kts 333°
2026-04-23 19:41 -53.56047 -67.91094 30501 ft 398 kts 333°
2026-04-23 19:41 -53.53542 -67.93004 30784 ft 399 kts 333°
2026-04-23 19:41 -53.51033 -67.94916 31082 ft 399 kts 333°
2026-04-23 19:41 -53.48508 -67.96837 31361 ft 400 kts 333°
2026-04-23 19:42 -53.45979 -67.98764 31636 ft 400 kts 333°
2026-04-23 19:42 -53.43446 -68.00695 31903 ft 401 kts 333°
2026-04-23 19:42 -53.40906 -68.02631 32157 ft 403 kts 333°
2026-04-23 19:42 -53.38355 -68.04566 32374 ft 404 kts 333°
2026-04-23 19:43 -53.35790 -68.06502 32635 ft 405 kts 333°
2026-04-23 19:43 -53.33223 -68.08439 32894 ft 406 kts 333°
2026-04-23 19:43 -53.30648 -68.10378 33142 ft 407 kts 333°
2026-04-23 19:43 -53.28068 -68.12317 33388 ft 408 kts 332°
2026-04-23 19:44 -53.25484 -68.14262 33654 ft 408 kts 332°
2026-04-23 19:44 -53.22897 -68.16209 33904 ft 409 kts 332°
2026-04-23 19:44 -53.20304 -68.18158 34166 ft 410 kts 332°
2026-04-23 19:44 -53.17712 -68.20108 34420 ft 410 kts 332°
2026-04-23 19:45 -53.15118 -68.22059 34671 ft 410 kts 332°
2026-04-23 19:45 -53.12518 -68.24006 34912 ft 411 kts 332°
2026-04-23 19:45 -53.09911 -68.25949 35132 ft 411 kts 332°
2026-04-23 19:45 -53.07299 -68.27892 35279 ft 413 kts 332°
2026-04-23 19:46 -53.04673 -68.29844 35297 ft 416 kts 332°
2026-04-23 19:46 -52.99396 -68.33777 35311 ft 417 kts 332°
2026-04-23 19:47 -52.94999 -68.37036 35307 ft 417 kts 332°
2026-04-23 19:47 -52.88828 -68.41591 35316 ft 417 kts 332°
2026-04-23 19:48 -52.83542 -68.45478 35317 ft 417 kts 332°
2026-04-23 19:48 -52.78255 -68.49374 35322 ft 417 kts 332°
2026-04-23 19:49 -52.72970 -68.53264 35327 ft 417 kts 332°
2026-04-23 19:49 -52.67683 -68.57144 35334 ft 417 kts 332°
2026-04-23 19:50 -52.62391 -68.61013 35336 ft 417 kts 332°
2026-04-23 19:50 -52.57097 -68.64867 35336 ft 417 kts 332°
2026-04-23 19:51 -52.51804 -68.68708 35342 ft 417 kts 332°
2026-04-23 19:51 -52.46509 -68.72551 35347 ft 417 kts 332°
2026-04-23 19:52 -52.41214 -68.76387 35348 ft 417 kts 332°
2026-04-23 19:52 -52.35922 -68.80203 35367 ft 417 kts 332°
2026-04-23 19:53 -52.30624 -68.84008 35366 ft 417 kts 332°
2026-04-23 19:53 -52.25350 -68.87785 35364 ft 416 kts 332°
2026-04-23 19:54 -52.20053 -68.91570 35368 ft 416 kts 332°
2026-04-23 19:54 -52.14760 -68.95356 35372 ft 416 kts 332°
2026-04-23 19:55 -52.09463 -68.99128 35373 ft 416 kts 332°
2026-04-23 19:55 -52.04168 -69.02886 35379 ft 416 kts 332°
2026-04-23 19:56 -51.98868 -69.06627 35383 ft 416 kts 332°
2026-04-23 19:56 -51.93572 -69.10363 35395 ft 416 kts 332°
2026-04-23 19:57 -51.88312 -69.14077 35406 ft 415 kts 332°
2026-04-23 19:57 -51.83041 -69.17775 35409 ft 414 kts 332°
2026-04-23 19:58 -51.77772 -69.21475 35409 ft 414 kts 332°
2026-04-23 19:58 -51.72501 -69.25169 35406 ft 414 kts 332°
2026-04-23 19:59 -51.67224 -69.28838 35405 ft 414 kts 332°
2026-04-23 19:59 -51.62138 -69.32992 35408 ft 407 kts 320°
2026-04-23 20:00 -51.58209 -69.39377 35404 ft 402 kts 306°
2026-04-23 20:00 -51.54860 -69.46563 35401 ft 403 kts 306°
2026-04-23 20:01 -51.51503 -69.53710 35399 ft 403 kts 306°
2026-04-23 20:01 -51.48138 -69.60851 35378 ft 404 kts 306°
2026-04-23 20:01 -51.46443 -69.64451 34886 ft 405 kts 306°
2026-04-23 20:02 -51.44752 -69.68030 34387 ft 403 kts 306°
2026-04-23 20:02 -51.43058 -69.71601 33894 ft 403 kts 307°
2026-04-23 20:02 -51.41367 -69.75161 33381 ft 402 kts 306°
2026-04-23 20:02 -51.39679 -69.78719 32923 ft 403 kts 307°
2026-04-23 20:03 -51.37986 -69.82281 32416 ft 403 kts 307°
2026-04-23 20:03 -51.36291 -69.85844 31874 ft 403 kts 307°
2026-04-23 20:03 -51.34599 -69.89401 31325 ft 403 kts 307°
2026-04-23 20:03 -51.32904 -69.92964 30774 ft 403 kts 307°
2026-04-23 20:04 -51.31208 -69.96528 30236 ft 403 kts 307°
2026-04-23 20:04 -51.29511 -70.00087 29713 ft 404 kts 307°
2026-04-23 20:04 -51.27806 -70.03651 29185 ft 406 kts 307°
2026-04-23 20:04 -51.26088 -70.07234 28696 ft 408 kts 307°
2026-04-23 20:05 -51.24360 -70.10829 28184 ft 410 kts 306°
2026-04-23 20:05 -51.22632 -70.14421 27663 ft 411 kts 306°
2026-04-23 20:05 -51.20890 -70.18038 27136 ft 413 kts 306°
2026-04-23 20:05 -51.19142 -70.21664 26615 ft 414 kts 306°
2026-04-23 20:06 -51.17388 -70.25293 26086 ft 415 kts 306°
2026-04-23 20:06 -51.15626 -70.28936 25563 ft 416 kts 306°
2026-04-23 20:06 -51.13861 -70.32578 25035 ft 417 kts 306°
2026-04-23 20:06 -51.12094 -70.36221 24523 ft 415 kts 306°
2026-04-23 20:07 -51.10337 -70.39836 24023 ft 412 kts 306°
2026-04-23 20:07 -51.08591 -70.43424 23515 ft 409 kts 306°
2026-04-23 20:07 -51.06859 -70.46978 23033 ft 406 kts 306°
2026-04-23 20:07 -51.05129 -70.50487 22521 ft 403 kts 307°
2026-04-23 20:08 -51.03328 -70.53876 22023 ft 401 kts 309°
2026-04-23 20:08 -51.01468 -70.57148 21523 ft 398 kts 310°
2026-04-23 20:08 -50.99586 -70.60337 21025 ft 395 kts 311°
2026-04-23 20:08 -50.97705 -70.63493 20525 ft 393 kts 311°
2026-04-23 20:09 -50.95844 -70.66632 20021 ft 390 kts 311°
2026-04-23 20:09 -50.94008 -70.69770 19524 ft 388 kts 310°
2026-04-23 20:09 -50.92195 -70.72903 19023 ft 385 kts 310°
2026-04-23 20:09 -50.90401 -70.76020 18525 ft 383 kts 310°
2026-04-23 20:10 -50.89210 -70.78094 18186 ft 381 kts 310°
2026-04-23 20:10 -50.86848 -70.82202 17461 ft 378 kts 310°
2026-04-23 20:10 -50.85083 -70.85257 16911 ft 376 kts 310°
2026-04-23 20:10 -50.83325 -70.88285 16332 ft 373 kts 310°
2026-04-23 20:11 -50.81579 -70.91286 15731 ft 370 kts 310°
2026-04-23 20:11 -50.79853 -70.94255 15126 ft 367 kts 310°
2026-04-23 20:11 -50.78138 -70.97212 14530 ft 364 kts 310°
2026-04-23 20:11 -50.76439 -71.00141 13935 ft 361 kts 309°
2026-04-23 20:12 -50.74751 -71.03045 13332 ft 358 kts 309°
2026-04-23 20:12 -50.73075 -71.05926 12732 ft 356 kts 309°
2026-04-23 20:12 -50.71407 -71.08785 12132 ft 353 kts 309°
2026-04-23 20:12 -50.69752 -71.11611 11531 ft 350 kts 309°
2026-04-23 20:13 -50.68107 -71.14415 10924 ft 349 kts 309°
2026-04-23 20:13 -50.66467 -71.17208 10329 ft 346 kts 310°
2026-04-23 20:13 -50.64842 -71.19971 9733 ft 343 kts 310°
2026-04-23 20:13 -50.63253 -71.22666 9489 ft 328 kts 310°
2026-04-23 20:14 -50.61745 -71.25221 9456 ft 309 kts 310°
2026-04-23 20:14 -50.60328 -71.27622 9466 ft 291 kts 310°
2026-04-23 20:14 -50.58986 -71.29895 9359 ft 277 kts 310°
2026-04-23 20:14 -50.57708 -71.32061 9227 ft 266 kts 310°
2026-04-23 20:15 -50.56470 -71.34162 9111 ft 260 kts 310°
2026-04-23 20:15 -50.55248 -71.36240 8982 ft 259 kts 310°
2026-04-23 20:15 -50.54028 -71.38315 8857 ft 258 kts 310°
2026-04-23 20:15 -50.52816 -71.40374 8728 ft 257 kts 310°
2026-04-23 20:16 -50.51603 -71.42424 8604 ft 256 kts 310°
2026-04-23 20:16 -50.50395 -71.44461 8485 ft 256 kts 310°
2026-04-23 20:16 -50.49178 -71.46516 8144 ft 259 kts 310°
2026-04-23 20:16 -50.47959 -71.48572 7733 ft 258 kts 310°
2026-04-23 20:17 -50.46739 -71.50625 7256 ft 258 kts 311°
2026-04-23 20:17 -50.45534 -71.52654 7038 ft 251 kts 311°
2026-04-23 20:17 -50.44343 -71.54654 6708 ft 250 kts 311°
2026-04-23 20:17 -50.43188 -71.56594 6601 ft 237 kts 311°
2026-04-23 20:18 -50.42091 -71.58437 6460 ft 226 kts 311°
2026-04-23 20:18 -50.41044 -71.60193 6326 ft 216 kts 311°
2026-04-23 20:18 -50.40042 -71.61864 6196 ft 209 kts 311°
2026-04-23 20:18 -50.39034 -71.63549 5968 ft 213 kts 311°
2026-04-23 20:19 -50.38023 -71.65242 5670 ft 212 kts 311°
2026-04-23 20:19 -50.37018 -71.66922 5379 ft 211 kts 311°
2026-04-23 20:19 -50.36013 -71.68600 5082 ft 212 kts 311°
2026-04-23 20:19 -50.34880 -71.70064 4780 ft 213 kts 327°
2026-04-23 20:20 -50.33540 -71.71072 4476 ft 215 kts 331°
2026-04-23 20:20 -50.32186 -71.72055 4167 ft 215 kts 331°
2026-04-23 20:20 -50.30842 -71.73032 3993 ft 211 kts 331°
2026-04-23 20:20 -50.29543 -71.73974 3866 ft 203 kts 331°
2026-04-23 20:21 -50.28301 -71.74925 3717 ft 196 kts 324°
2026-04-23 20:21 -50.27311 -71.76295 3568 ft 188 kts 307°
2026-04-23 20:21 -50.26699 -71.78033 3452 ft 178 kts 290°
2026-04-23 20:21 -50.26493 -71.79864 3291 ft 166 kts 273°
2026-04-23 20:22 -50.26581 -71.81578 3178 ft 151 kts 269°
2026-04-23 20:22 -50.26676 -71.83128 3108 ft 142 kts 269°
2026-04-23 20:22 -50.26768 -71.84636 2973 ft 139 kts 269°
2026-04-23 20:22 -50.26858 -71.86115 2814 ft 137 kts 269°
2026-04-23 20:23 -50.26949 -71.87603 2639 ft 137 kts 268°
2026-04-23 20:23 -50.27042 -71.89078 2455 ft 136 kts 267°
2026-04-23 20:23 -50.27130 -71.90544 2281 ft 136 kts 266°
2026-04-23 20:23 -50.27219 -71.92009 2105 ft 136 kts 265°
2026-04-23 20:24 -50.27310 -71.93470 1925 ft 136 kts 264°
2026-04-23 20:24 -50.27400 -71.94931 1748 ft 135 kts 264°
2026-04-23 20:24 -50.27487 -71.96384 1567 ft 134 kts 264°
2026-04-23 20:24 -50.27573 -71.97825 1396 ft 134 kts 264°
2026-04-23 20:25 -50.27662 -71.99277 1214 ft 134 kts 264°
2026-04-23 20:25 -50.27750 -72.00734 1035 ft 135 kts 264°
2026-04-23 20:25 -50.27839 -72.02182 851 ft 135 kts 264°
2026-04-23 20:25 -50.27919 -72.03642 663 ft 135 kts 264°
2026-04-23 20:26 -50.27997 -72.04867 645 ft 76 kts 266°
2026-04-23 20:26 -50.28017 -72.05302 643 ft 18 kts 263°
2026-04-23 20:26 -50.28103 -72.05413 643 ft 15 kts 175°
2026-04-23 20:26 -50.28111 -72.05412 642 ft 0 kts 176°
2026-04-23 20:27 -50.28119 -72.05411 641 ft 3 kts 177°
2026-04-23 20:27 -50.28150 -72.05408 641 ft 6 kts 176°
2026-04-23 20:27 -50.28181 -72.05405 642 ft 4 kts 176°
2026-04-23 20:28 -50.28216 -72.05399 641 ft 6 kts 168°
2026-04-23 20:28 -50.28248 -72.05346 641 ft 8 kts 102°
2026-04-23 20:28 -50.28254 -72.05296 641 ft 5 kts 105°
2026-04-23 20:28 -50.28278 -72.05264 641 ft 3 kts 155°
2026-04-23 20:29 -50.28300 -72.05271 641 ft 4 kts 214°
2026-04-23 20:29 -50.28308 -72.05282 641 ft 2 kts 225°
2026-04-23 20:29 -50.28315 -72.05296 643 ft 1 kts 232°
2026-04-23 20:29 -50.28320 -72.05305 641 ft 1 kts 228°
2026-04-23 20:30 -50.28325 -72.05313 641 ft 2 kts 230°
2026-04-23 20:30 -50.28326 -72.05317 641 ft 0 kts 232°